Regional Weather Roundup
Issued by NWS Midland/Odessa, TX

Skip options and go directly to product.
Home | Oldest Version | Previous Version | Current Version | All | Text Only | Save Text | Print | Product List | Glossary Off

Skip product version selection by date and time.   

168
ASUS44 KMAF 131710
RWRMAF
MIDLAND AREA WEATHER ROUNDUP
NATIONAL WEATHER SERVICE MIDLAND TX
1100 AM CST SAT FEB 13 2016

...IN SOUTHWEST TEXAS AND SOUTHEAST NEW MEXICO...

CITY           SKY/WX    TMP DP  RH WIND       PRES   REMARKS
ALPINE         SUNNY     70  20  14 SW14      30.37S
ANDREWS        FAIR      57  38  49 S12       30.28F
ARTESIA        MOSUNNY   48  32  53 SE7       30.27F
BIG SPRING     SUNNY     58  40  50 SE14      30.32F
CARLSBAD       CLOUDY    52  31  44 CALM      30.27F
DRYDEN           N/A     62  45  53 VRB7      30.29F
FORT STOCKTON  SUNNY     59  29  31 CALM      30.29F
GUAD PASS      SUNNY     56  17  21 SW9       30.33S
HOBBS          SUNNY     55  36  47 SE13      30.29F
MARFA          SUNNY     63  20  19 SE12      30.35F
MIDLAND AIRPK  SUNNY     58  40  49 SE12      30.29F
MIDLAND INTL   SUNNY     57  39  51 S14       30.29F
ODESSA         SUNNY     58  39  49 S10       30.29F
PECOS          SUNNY     51  33  49 CALM      30.28F
PRESIDIO       FAIR      66  22  19 SE3       30.28F
SEMINOLE       SUNNY     55  37  50 S10       30.30F
SNYDER           N/A     54  36  50 SE10      30.32F
WINK           SUNNY     59  39  47 S10       30.26F
$$
...OTHER STATIONS IN TEXAS...

CITY           SKY/WX    TMP DP  RH WIND       PRES   REMARKS
ABILENE        SUNNY     58  35  42 S14       30.33F
AMARILLO       SUNNY     47  33  58 S25G35    30.25F WCI  39
AUSTIN         PTSUNNY   62  49  62 SW8       30.35F
BROWNSVILLE    PTSUNNY   73  54  51 S15       30.33R
CORPUS CHRISTI PTSUNNY   73  54  51 SE9       30.34S
DALLAS FTW     MOSUNNY   54  34  46 SE12      30.39F
DEL RIO        SUNNY     67  51  56 SE10G21   30.30S
EL PASO        PTSUNNY   58  16  19 NW3       30.26F
HOUSTON INT    MOSUNNY   64  45  49 SE12G17   30.37F
LUBBOCK        MOSUNNY   53  35  50 S14       30.28F
SAN ANGELO     SUNNY     60  38  43 CALM      30.32F
SAN ANTONIO    PTSUNNY   64  51  62 S5        30.36R
WACO           SUNNY     59  39  47 SE9       30.36F
WICHITA FALLS  NOT AVBL
$$
...OTHER LOCATIONS IN NEW MEXICO...

CITY           SKY/WX    TMP DP  RH WIND       PRES   REMARKS
ALAMAGORDO     SUNNY     55  16  21 CALM      30.28S
ALBUQUERQUE    MOSUNNY   48  22  35 W3        30.30F
CANNON AFB     SUNNY     52  33  48 S16       30.26F
CLOVIS         SUNNY     50  34  53 S18       30.28S
HOLLOMAN AFB   SUNNY     56  15  19 SE3       30.26F
ROSWELL        CLOUDY    50  29  44 S5        30.26F
RUIDOSO          N/A     54  18  24 N5        30.34F
SANTA FE       SUNNY     51  23  33 CALM      30.29F
TRUTH OR CONSE SUNNY     55  12  18 NE6       30.28F
TUCUMCARI      SUNNY     58  30  34 SW16      30.20F
$$

USA.gov is the U.S. government's official web portal to all federal, state and local government web resources and services.